Location: Powder Track
(41.8531°N, 72.3584°W)
Time: 08:48:20
(UTC+00:00)

Altair - Pass Details

Date: 07 August 2021
Orbit: 1501 x 1682 km, 47.2° (Epoch: 19 September)

Event Time Altitude Azimuth Distance (km) Brightness Sun altitude
Exits shadow 05:28:13 49° 244° (WSW) 1,931 7.7 -31.3°
Maximum altitude 05:31:21 90° 311° (NW) 1,549 7.3 -31.2°
Drops below altitude 10° 05:40:40 10° 66° (ENE) 3,676 9.9 -30.9°
Sets 05:43:40 0° 66° (ENE) 4,648 10.5 -30.7°
